TimeEST,TemperatureF,Dew PointF,Humidity,Sea Level PressureIn,VisibilityMPH,Wind Direction,Wind SpeedMPH,Gust SpeedMPH,PrecipitationIn,Events,Conditions,WindDirDegrees,DateUTC
12:51 AM,14.0,1.0,56,30.36,10.0,WNW,3.5,-,N/A,,Clear,290,1998-01-01 05:51:00
1:51 AM,12.9,1.9,62,30.39,10.0,West,5.8,-,N/A,,Clear,260,1998-01-01 06:51:00
2:51 AM,10.9,1.9,67,30.42,10.0,WSW,4.6,-,N/A,,Clear,240,1998-01-01 07:51:00
3:51 AM,10.9,1.9,67,30.43,10.0,SW,4.6,-,N/A,,Clear,230,1998-01-01 08:51:00
4:51 AM,12.0,3.0,67,30.44,10.0,WSW,4.6,-,N/A,,Clear,240,1998-01-01 09:51:00
5:51 AM,12.9,5.0,71,30.47,10.0,West,5.8,-,N/A,,Clear,270,1998-01-01 10:51:00
6:51 AM,10.9,5.0,77,30.48,10.0,SW,3.5,-,N/A,,Clear,230,1998-01-01 11:51:00
7:51 AM,12.9,7.0,77,30.51,10.0,WSW,6.9,-,N/A,,Scattered Clouds,250,1998-01-01 12:51:00
8:51 AM,16.0,8.1,71,30.52,10.0,WSW,8.1,-,N/A,,Partly Cloudy,250,1998-01-01 13:51:00
9:51 AM,18.0,8.1,65,30.55,10.0,WSW,10.4,-,N/A,,Partly Cloudy,250,1998-01-01 14:51:00
10:51 AM,19.9,9.0,62,30.53,10.0,WSW,12.7,-,N/A,,Scattered Clouds,240,1998-01-01 15:51:00
11:51 AM,21.9,10.0,60,30.50,10.0,WSW,15.0,-,N/A,,Scattered Clouds,240,1998-01-01 16:51:00
12:51 PM,24.1,10.0,55,30.48,10.0,WSW,15.0,-,N/A,,Mostly Cloudy,240,1998-01-01 17:51:00
1:51 PM,24.1,10.9,57,30.45,10.0,WSW,15.0,21.9,N/A,,Overcast,240,1998-01-01 18:51:00
2:51 PM,24.1,10.9,57,30.43,10.0,WSW,17.3,21.9,N/A,,Overcast,240,1998-01-01 19:51:00
3:51 PM,24.1,12.0,60,30.41,10.0,WSW,9.2,-,N/A,,Overcast,240,1998-01-01 20:51:00
4:51 PM,25.0,10.9,55,30.39,10.0,SW,11.5,-,N/A,,Mostly Cloudy,220,1998-01-01 21:51:00
5:51 PM,25.0,10.0,53,30.38,10.0,SSW,8.1,-,N/A,,Overcast,200,1998-01-01 22:51:00
6:51 PM,26.1,10.9,53,30.35,10.0,SSW,12.7,19.6,N/A,,Overcast,210,1998-01-01 23:51:00
7:51 PM,25.0,10.9,55,30.33,10.0,SSW,11.5,-,N/A,,Scattered Clouds,210,1998-01-02 00:51:00
8:51 PM,24.1,10.9,57,30.30,10.0,SSW,6.9,-,N/A,,Scattered Clouds,210,1998-01-02 01:51:00
9:51 PM,23.0,12.0,63,30.27,10.0,Calm,Calm,-,N/A,,Partly Cloudy,0,1998-01-02 02:51:00
10:51 PM,21.0,10.0,63,30.25,10.0,SSW,6.9,-,N/A,,Clear,210,1998-01-02 03:51:00
11:51 PM,23.0,14.0,68,30.22,10.0,WSW,4.6,-,N/A,,Scattered Clouds,250,1998-01-02 04:51:00